[[{"header":{"parameterUnit":"m.s-1","parameterCategory":1,"la1":30.2991,"la2":30.254,"lo1":-89.0895,"lo2":-89.0444,"dy":0.0017,"dx":0.0017,"nx":28,"ny":28,"refTime":"2023-11-07T03:00:00:Z","depth":0,"parameterNumber":2,"parameterNumberName":"U-component_of_WINDS"},"data":[0,0,0,0,0,0,0,0,0,0,0,0,0,0,0,0,0,0,0,0,0,0,0,0,0,0,0,0,0,0,0,0,0,0,0,0,0,0,0,0,0,0,0,0,0,0,0,0,0,0,0,0,0,0,0,0,0,0,-1.44,-1.4401,0,-1.4489,-1.449,-1.4491,-1.4525,-1.4525,-1.4525,-1.4524,-1.4608,-1.4611,-1.4613,0,0,0,0,0,0,0,0,0,0,0,0,0,-1.425,-1.4252,-1.44,-1.4401,-1.4402,-1.4489,-1.449,-1.4491,-1.4525,-1.4525,-1.4524,-1.4524,-1.4608,-1.4611,-1.4614,0,0,0,0,0,0,0,0,0,0,0,0,0,-1.4324,-1.4253,-1.4399,-1.4429,-1.4433,-1.4488,-1.449,-1.4491,-1.4525,-1.4525,-1.4524,-1.4524,-1.4607,-1.461,-1.4614,-1.4644,0,0,-1.4625,-1.4627,0,0,0,0,0,0,0,0,-1.432,-1.433,-1.4424,-1.4427,-1.4432,-1.4496,-1.4468,-1.4542,-1.4525,-1.449,-1.4524,-1.4524,-1.4571,-1.4577,-1.4595,-1.4648,-1.4651,-1.4626,-1.4628,-1.4629,-1.463,0,0,0,0,0,0,0,-1.4315,-1.4326,-1.4435,-1.4425,-1.443,-1.4435,-1.4446,-1.4482,-1.4531,-1.4493,-1.4496,-1.4506,-1.4573,-1.4591,-1.4597,-1.4653,-1.4625,-1.4629,-1.4631,-1.4632,-1.4731,-1.4732,0,0,0,0,0,0,-1.4306,-1.4321,-1.4432,-1.4437,-1.4374,-1.4438,-1.445,-1.4475,-1.4531,-1.4539,-1.4506,-1.4507,-1.4585,-1.4592,-1.46,-1.4637,-1.4629,-1.4633,-1.4635,-1.4731,-1.4731,-1.4732,0,0,0,0,0,0,-1.4302,-1.4315,-1.4428,-1.438,-1.4395,-1.4441,-1.447,-1.4477,-1.4496,-1.4541,-1.4549,-1.4517,-1.4585,-1.4595,-1.4633,-1.4641,-1.4634,-1.4638,-1.473,-1.4731,-1.4732,-1.4713,0,0,0,0,0,0,-1.4298,-1.4314,-1.4328,-1.438,-1.4398,-1.4462,-1.447,-1.4479,-1.4503,-1.4505,-1.4553,-1.456,-1.4585,-1.4627,-1.4636,-1.4646,-1.4641,-1.473,-1.4731,-1.4731,-1.4713,-1.4713,-1.4713,0,0,0,0,0,-1.4292,-1.4318,-1.4329,-1.4342,-1.4417,-1.4463,-1.4472,-1.4503,-1.4503,-1.4516,-1.4545,-1.4559,-1.4638,-1.463,-1.4641,-1.4652,-1.473,-1.4731,-1.4731,-1.4713,-1.4713,-1.4713,0,0,0,0,0,0,-1.4264,-1.4326,-1.4338,-1.4382,-1.4417,-1.4468,-1.4486,-1.4502,-1.4535,-1.4536,-1.4569,-1.458,-1.4614,-1.4637,-1.4627,-1.4682,-1.4684,-1.4688,-1.4667,-1.4667,-1.4667,-1.466,-1.4644,0,0,0,0,0,-1.4263,-1.4298,-1.4349,-1.4382,-1.44,-1.444,-1.4461,-1.4481,-1.4518,-1.4532,-1.4563,-1.4596,-1.4628,-1.4649,-1.4681,-1.4716,-1.4725,-1.4728,-1.4728,-1.4727,-1.473,-1.4748,-1.4749,-1.4735,-1.4735,-1.4735,0,0,-1.4261,-1.4299,-1.4319,-1.4378,-1.4407,-1.4439,-1.4452,-1.4486,-1.4509,-1.4536,-1.4575,-1.4598,-1.4636,-1.4673,-1.469,-1.4692,-1.4735,-1.4729,-1.4728,-1.4731,-1.4749,-1.475,-1.4751,-1.4736,-1.4735,-1.4735,0,0,-1.4274,-1.4307,-1.4338,-1.4367,-1.4412,-1.4439,-1.4445,-1.4494,-1.4512,-1.4551,-1.4571,-1.4597,-1.4653,-1.4679,-1.4699,-1.4719,-1.4732,-1.4728,-1.4727,-1.4744,-1.4745,-1.4746,-1.4752,-1.4753,-1.473,-1.473,-1.473,0,-1.4265,-1.4318,-1.4351,-1.4385,-1.4409,-1.4436,-1.4465,-1.4491,-1.4543,-1.4558,-1.456,-1.4628,-1.4656,-1.4698,-1.4702,-1.4718,-1.4725,-1.4723,-1.4742,-1.4744,-1.4745,-1.4751,-1.4753,-1.4729,-1.4729,-1.4729,-1.4729,0,-1.4304,-1.4339,-1.4358,-1.441,-1.4436,-1.4467,-1.4502,-1.4524,-1.4541,-1.4565,-1.4603,-1.4637,-1.4675,-1.4686,-1.4703,-1.4729,-1.4729,-1.4736,-1.474,-1.4745,-1.4751,-1.4754,-1.4728,-1.4728,-1.4728,-1.4728,0,0,-1.4303,-1.4372,-1.4378,-1.4401,-1.4451,-1.4478,-1.4508,-1.4548,-1.4565,-1.4599,-1.4623,-1.4668,-1.4675,-1.4698,-1.4717,-1.4732,-1.4743,-1.4737,-1.4738,-1.4736,-1.4772,-1.4766,-1.4768,-1.4751,-1.4752,-1.4752,-1.4768,0,-1.4322,-1.4382,-1.4411,-1.4456,-1.4488,-1.4512,-1.4538,-1.457,-1.4593,-1.4621,-1.4645,-1.4676,-1.4683,-1.4697,-1.4712,-1.4738,-1.475,-1.4737,-1.4773,-1.4773,-1.4763,-1.4772,-1.4767,-1.478,-1.4771,-1.4771,-1.4772,0,-1.4353,-1.4389,-1.4437,-1.4482,-1.4496,-1.452,-1.4557,-1.4584,-1.4619,-1.4635,-1.4659,-1.4678,-1.4707,-1.4707,-1.4747,-1.4738,-1.4753,-1.4767,-1.4769,-1.4773,-1.4773,-1.4776,-1.4785,-1.4787,-1.4776,-1.4775,-1.4775,0,-1.4346,-1.4406,-1.4442,-1.4461,-1.4515,-1.453,-1.4552,-1.4587,-1.4608,-1.464,-1.4653,-1.4687,-1.4705,-1.4729,-1.4755,-1.4753,-1.4791,-1.4794,-1.4803,-1.4802,-1.481,-1.481,-1.4822,-1.482,-1.482,-1.482,-1.482,0,-1.4364,-1.4393,-1.444,-1.4462,-1.4494,-1.4526,-1.4555,-1.4578,-1.4609,-1.4634,-1.4656,-1.4678,-1.4711,-1.4737,-1.4756,-1.4785,-1.4793,-1.4805,-1.4809,-1.4803,-1.4801,-1.4814,-1.4813,-1.4821,-1.4821,-1.4821,-1.4821,0,-1.4363,-1.4396,-1.4437,-1.4484,-1.4496,-1.4517,-1.4556,-1.4576,-1.46,-1.4631,-1.464,-1.4676,-1.4707,-1.4735,-1.4775,-1.4788,-1.4817,-1.4824,-1.4806,-1.4809,-1.4816,-1.4815,-1.4837,-1.4841,-1.4837,-1.4837,-1.4837,0,-1.4372,-1.4395,-1.4444,-1.4464,-1.4487,-1.4517,-1.4539,-1.457,-1.4591,-1.4632,-1.4647,-1.468,-1.4708,-1.4756,-1.4784,-1.4814,-1.4821,-1.4826,-1.4826,-1.4817,-1.482,-1.4819,-1.482,-1.4826,-1.4826,-1.4826,-1.4826,0,-1.4385,-1.44,-1.4432,-1.4469,-1.4495,-1.4526,-1.4556,-1.457,-1.4606,-1.4628,-1.4661,-1.4683,-1.4724,-1.4756,-1.4789,-1.4809,-1.4822,-1.4826,-1.4829,-1.4823,-1.4812,-1.4817,-1.4805,-1.4825,-1.4825,-1.4825,-1.4825,-1.4825,-1.4389,-1.441,-1.4448,-1.4482,-1.4508,-1.4536,-1.4557,-1.4584,-1.4613,-1.4651,-1.4666,-1.4699,-1.473,-1.4777,-1.4796,-1.482,-1.4823,-1.4828,-1.4829,-1.483,-1.4829,-1.4808,-1.4826,-1.4826,-1.4826,-1.4826,-1.4826,0,-1.4402,-1.4428,-1.4459,-1.4502,-1.4528,-1.454,-1.4574,-1.4594,-1.4624,-1.4653,-1.468,-1.4717,-1.4747,-1.4777,-1.4808,-1.4821,-1.4828,-1.4828,-1.4827,-1.4831,-1.4825,-1.4819,-1.4822,-1.4822,-1.4822,-1.4822,-1.4822,-1.4822,-1.4412,-1.4448,-1.4466,-1.4513,-1.4538,-1.4572,-1.459,-1.4614,-1.4638,-1.4679,-1.4705,-1.4724,-1.4753,-1.4786,-1.4813,-1.4821,-1.4831,-1.4829,-1.4838,-1.4832,-1.4832,-1.4832,-1.4826,-1.4831,-1.4831,-1.4843,-1.4843,-1.4843]},{"header":{"parameterUnit":"m.s-1","parameterCategory":1,"la1":30.2991,"la2":30.254,"lo1":-89.0895,"lo2":-89.0444,"dy":0.0017,"dx":0.0017,"nx":28,"ny":28,"refTime":"2023-11-07T03:00:00:Z","depth":0,"parameterNumber":3,"parameterNumberName":"V-component_of_WINDS"},"data":[0,0,0,0,0,0,0,0,0,0,0,0,0,0,0,0,0,0,0,0,0,0,0,0,0,0,0,0,0,0,0,0,0,0,0,0,0,0,0,0,0,0,0,0,0,0,0,0,0,0,0,0,0,0,0,0,0,0,1.1757,1.1755,0,1.1617,1.1615,1.1614,1.1524,1.1524,1.1523,1.1522,1.1381,1.1378,1.1375,0,0,0,0,0,0,0,0,0,0,0,0,0,1.1952,1.1949,1.1757,1.1755,1.1753,1.1617,1.1615,1.1613,1.1524,1.1523,1.1523,1.1522,1.1383,1.1379,1.1375,0,0,0,0,0,0,0,0,0,0,0,0,0,1.1846,1.1948,1.1757,1.1692,1.1685,1.1618,1.1615,1.1613,1.1524,1.1523,1.1523,1.1522,1.1384,1.1379,1.1374,1.1361,0,0,1.1359,1.1357,0,0,0,0,0,0,0,0,1.1852,1.1839,1.1704,1.1697,1.1688,1.1587,1.1632,1.1528,1.1525,1.1585,1.1522,1.1521,1.1451,1.144,1.1416,1.1354,1.1348,1.1359,1.1356,1.1354,1.1353,0,0,0,0,0,0,0,1.1859,1.1844,1.1701,1.1702,1.1693,1.1672,1.1656,1.1612,1.1524,1.158,1.1573,1.1558,1.1446,1.1421,1.1412,1.1346,1.1359,1.1355,1.1352,1.135,1.1272,1.1273,0,0,0,0,0,0,1.1876,1.1851,1.1706,1.1697,1.177,1.1669,1.1651,1.162,1.1525,1.1509,1.1559,1.1554,1.143,1.1418,1.1407,1.1387,1.1354,1.1349,1.1347,1.1271,1.1272,1.1273,0,0,0,0,0,0,1.1881,1.1864,1.1712,1.1772,1.1751,1.1667,1.1633,1.1618,1.1592,1.1508,1.1493,1.1548,1.1428,1.1414,1.1374,1.1381,1.1347,1.1343,1.127,1.1272,1.1273,1.1347,0,0,0,0,0,0,1.1887,1.1866,1.1858,1.1773,1.1748,1.1679,1.1633,1.1616,1.1584,1.1577,1.1494,1.148,1.1427,1.1382,1.1369,1.1374,1.1339,1.1269,1.1271,1.1272,1.1344,1.1351,1.1357,0,0,0,0,0,1.1894,1.1884,1.1858,1.1841,1.1736,1.168,1.1666,1.1604,1.1585,1.1578,1.1525,1.1483,1.1383,1.1378,1.1363,1.1367,1.1268,1.127,1.1272,1.1341,1.135,1.1357,0,0,0,0,0,0,1.1972,1.1871,1.1842,1.1803,1.1751,1.1665,1.1653,1.1615,1.1567,1.1562,1.1488,1.147,1.1439,1.1399,1.1396,1.1352,1.1321,1.132,1.1378,1.1386,1.1393,1.1403,1.1335,0,0,0,0,0,1.1985,1.1946,1.1861,1.1836,1.1811,1.1738,1.171,1.1668,1.161,1.1588,1.1531,1.1479,1.1436,1.1409,1.1364,1.1339,1.1321,1.1334,1.1341,1.1347,1.1347,1.1334,1.134,1.1279,1.1279,1.1279,0,0,1.2011,1.1951,1.1931,1.185,1.1804,1.1768,1.1719,1.1681,1.1654,1.1582,1.1541,1.15,1.1436,1.1405,1.1388,1.137,1.136,1.1349,1.1354,1.1351,1.1337,1.1343,1.1348,1.1281,1.1281,1.128,0,0,1.2039,1.1989,1.1964,1.1921,1.1853,1.1805,1.18,1.172,1.169,1.1648,1.1595,1.1563,1.149,1.1448,1.1417,1.1438,1.1398,1.1426,1.146,1.1448,1.1453,1.1457,1.1467,1.1471,1.1426,1.1426,1.1426,0,1.208,1.2021,1.1957,1.1924,1.1892,1.1826,1.1803,1.1764,1.1685,1.1666,1.1647,1.1557,1.151,1.1469,1.1475,1.1452,1.1445,1.1433,1.1458,1.1461,1.1464,1.1472,1.1476,1.143,1.1429,1.1429,1.1429,0,1.2076,1.2037,1.2026,1.1953,1.192,1.1891,1.1825,1.18,1.1763,1.1718,1.1679,1.1621,1.1566,1.1553,1.1515,1.1509,1.1501,1.1471,1.1439,1.1474,1.1481,1.1483,1.1435,1.1434,1.1433,1.1432,0,0,1.2145,1.2041,1.2038,1.2006,1.193,1.1899,1.1871,1.1817,1.1798,1.1748,1.1724,1.1667,1.164,1.1606,1.1563,1.1554,1.1578,1.1526,1.1523,1.1539,1.1571,1.1594,1.1599,1.1552,1.1552,1.1553,1.1577,0,1.2162,1.2106,1.205,1.2014,1.198,1.1921,1.1897,1.1849,1.1808,1.1775,1.173,1.1691,1.1658,1.1638,1.1625,1.1577,1.1583,1.1575,1.1531,1.153,1.1548,1.1602,1.1624,1.165,1.1579,1.158,1.158,0,1.2173,1.2128,1.209,1.2021,1.2005,1.1984,1.1933,1.1901,1.1848,1.1819,1.1784,1.174,1.171,1.1684,1.1643,1.1639,1.1619,1.1593,1.1593,1.1586,1.1557,1.1597,1.1656,1.1661,1.1583,1.1583,1.1582,0,1.223,1.2159,1.2128,1.2103,1.2022,1.2009,1.1975,1.1921,1.1894,1.1851,1.1833,1.1787,1.1762,1.1729,1.1675,1.166,1.1642,1.161,1.1619,1.1621,1.1617,1.1618,1.1674,1.1604,1.1604,1.1603,1.1603,0,1.2255,1.2234,1.2153,1.2134,1.211,1.2049,1.2028,1.1989,1.1943,1.1917,1.1864,1.1841,1.1772,1.1742,1.1701,1.1676,1.1664,1.1642,1.1631,1.1647,1.165,1.1632,1.1629,1.1604,1.1604,1.1604,1.1604,0,1.2313,1.2257,1.222,1.2148,1.213,1.2116,1.2056,1.2037,1.1995,1.1964,1.1953,1.1888,1.185,1.1795,1.174,1.1712,1.1695,1.1676,1.1713,1.1706,1.172,1.172,1.1766,1.1771,1.1697,1.1698,1.1699,0,1.2332,1.2315,1.2243,1.2222,1.2191,1.2157,1.2131,1.2072,1.2047,1.1989,1.1978,1.1937,1.19,1.1845,1.1793,1.1753,1.1734,1.1754,1.1727,1.1745,1.1736,1.1738,1.1738,1.1759,1.176,1.1761,1.1762,0,1.2373,1.2348,1.2311,1.2267,1.2238,1.2199,1.2159,1.2146,1.2079,1.2054,1.2016,1.1989,1.1935,1.1896,1.185,1.1817,1.178,1.1771,1.1772,1.1787,1.1809,1.18,1.173,1.177,1.1769,1.1768,1.1768,1.1768,1.2412,1.2396,1.2345,1.2307,1.2272,1.2237,1.2217,1.2175,1.2142,1.2094,1.2062,1.2027,1.1979,1.1913,1.1883,1.1857,1.184,1.184,1.184,1.1841,1.1848,1.1815,1.1848,1.1848,1.1847,1.1847,1.1847,0,1.2452,1.2417,1.2384,1.2331,1.2303,1.2272,1.2227,1.2206,1.2176,1.2135,1.2102,1.2061,1.2025,1.1973,1.1934,1.1923,1.1905,1.1914,1.1915,1.1908,1.1864,1.1868,1.193,1.193,1.193,1.193,1.193,1.193,1.2469,1.2442,1.2412,1.2368,1.2334,1.2299,1.2277,1.2246,1.2214,1.2171,1.2141,1.2108,1.2064,1.2022,1.1989,1.1975,1.1963,1.1979,1.196,1.1919,1.1911,1.1904,1.1907,1.1976,1.1976,1.2006,1.2006,1.2007]}]]